This is the latest recevied weather packets stored in our database for station/object N3FAA. If no packets are shown the sender has not sent any weather packets the latest 10 day(s).
| Time | Temp. | Humidity | Pressure | Rain* | Wind** | Luminosity | Snow |
|---|---|---|---|---|---|---|---|
| 1778259585 | 27.22° C | 31% | 1013.1 hPa | 0 mm | - | 786 W/m² | - |
| 1778259284 | 26.67° C | 33% | 1013 hPa | 0 mm | - | 786 W/m² | - |
| 1778258979 | 26.67° C | 35% | 1013.1 hPa | 0 mm | - | 776 W/m² | - |
| 1778258676 | 26.67° C | 37% | 1013.2 hPa | 0 mm | - | 768 W/m² | - |
| 1778258373 | 26.67° C | 37% | 1013 hPa | 0 mm | - | 756 W/m² | - |
| 1778258071 | 26.67° C | 39% | 1013.3 hPa | 0 mm | - | 718 W/m² | - |
| 1778257766 | 26.11° C | 39% | 1012.9 hPa | 0 mm | - | 684 W/m² | - |
| 1778257464 | 26.11° C | 38% | 1013 hPa | 0 mm | - | 672 W/m² | - |
| 1778257161 | 26.11° C | 36% | 1013 hPa | 0 mm | - | 647 W/m² | - |
| 1778256858 | 25.56° C | 40% | 1013 hPa | 0 mm | - | 642 W/m² | - |
| 1778256555 | 25.56° C | 42% | 1012.9 hPa | 0 mm | - | 610 W/m² | - |
| 1778256254 | 25° C | 40% | 1013 hPa | 0 mm | - | 585 W/m² | - |
| 1778255949 | 24.44° C | 45% | 1012.9 hPa | 0 mm | - | 530 W/m² | - |
| 1778255647 | 24.44° C | 45% | 1012.6 hPa | 0 mm | - | 493 W/m² | - |
| 1778255344 | 24.44° C | 46% | 1013 hPa | 0 mm | - | 465 W/m² | - |
| 1778255042 | 24.44° C | 47% | 1012.9 hPa | 0 mm | - | 434 W/m² | - |
| 1778254738 | 23.89° C | 47% | 1012.9 hPa | 0 mm | - | 384 W/m² | - |
| 1778254435 | 23.89° C | 45% | 1013 hPa | 0 mm | - | 346 W/m² | - |
| 1778254131 | 23.89° C | 48% | 1012.8 hPa | 0 mm | - | 325 W/m² | - |
| 1778253828 | 23.89° C | 49% | 1012.8 hPa | 0 mm | - | 317 W/m² | - |
| 1778253524 | 23.33° C | 49% | 1013 hPa | 0 mm | - | 306 W/m² | - |
| 1778253221 | 23.33° C | 50% | 1013.1 hPa | 0 mm | - | 296 W/m² | - |
| 1778252917 | 23.33° C | 50% | 1013.2 hPa | 0 mm | - | 291 W/m² | - |
| 1778252614 | 22.78° C | 50% | 1013.1 hPa | 0 mm | - | 260 W/m² | - |
| 1778252311 | 22.78° C | 50% | 1012.9 hPa | 0 mm | - | 246 W/m² | - |
* Rain latest hour (hover to see other rain measurements)
** Current wind speed in m/s (hover to see current wind gust speed)